This is the latest recevied weather packets stored in our database for station/object WX7FGZ-5. If no packets are shown the sender has not sent any weather packets the latest 10 day(s).
| Time | Temp. | Humidity | Pressure | Rain* | Wind** | Luminosity | Snow |
|---|---|---|---|---|---|---|---|
| 1777899482 | 6.67° C | 60% | 1019.4 hPa | 0 mm | - | 16 W/m² | - |
| 1777899182 | 6.67° C | 60% | 1019.6 hPa | 0 mm | - | 14 W/m² | - |
| 1777898284 | 7.22° C | 57% | 1019.3 hPa | 0 mm | - | 0 W/m² | - |
| 1777897381 | 7.22° C | 57% | 1019.5 hPa | 0 mm | - | 0 W/m² | - |
| 1777896211 | 7.22° C | 56% | 1019.2 hPa | 0 mm | - | 0 W/m² | - |
| 1777896123 | 7.22° C | 56% | 1019.2 hPa | 0 mm | - | 0 W/m² | - |
| 1777895384 | 7.78° C | 55% | 1019.7 hPa | 0 mm | - | 0 W/m² | - |
| 1777895223 | 7.78° C | 55% | 1019.7 hPa | 0 mm | - | 0 W/m² | - |
| 1777894740 | 7.78° C | 54% | 1019.6 hPa | 0 mm | - | 0 W/m² | - |
| 1777894629 | 7.78° C | 54% | 1019.6 hPa | 0 mm | - | 0 W/m² | - |
| 1777894322 | 7.78° C | 54% | 1019.9 hPa | 0 mm | - | 0 W/m² | - |
| 1777893944 | 7.78° C | 55% | 1020.1 hPa | 0 mm | - | 0 W/m² | - |
| 1777893726 | 7.78° C | 55% | 1020.1 hPa | 0 mm | - | 0 W/m² | - |
| 1777893721 | 7.78° C | 55% | 1020.1 hPa | 0 mm | - | 0 W/m² | - |
| 1777893035 | 7.78° C | 54% | 1019.7 hPa | 0 mm | - | 0 W/m² | - |
| 1777891406 | 8.33° C | 56% | 1019.7 hPa | 0 mm | - | 0 W/m² | - |
| 1777891235 | 8.33° C | 56% | 1019.7 hPa | 0 mm | - | 0 W/m² | - |
| 1777890654 | 8.33° C | 55% | 1019.8 hPa | 0 mm | - | 0 W/m² | - |
| 1777890593 | 8.33° C | 55% | 1019.9 hPa | 0 mm | - | 0 W/m² | - |
| 1777890335 | 8.33° C | 55% | 1019.9 hPa | 0 mm | - | 0 W/m² | - |
| 1777890213 | 8.33° C | 55% | 1019.5 hPa | 0 mm | - | 0 W/m² | - |
| 1777890035 | 8.33° C | 55% | 1019.5 hPa | 0 mm | - | 0 W/m² | - |
| 1777889422 | 8.33° C | 53% | 1020 hPa | 0 mm | - | 0 W/m² | - |
| 1777889134 | 8.33° C | 53% | 1020 hPa | 0 mm | - | 0 W/m² | - |
| 1777888869 | 8.33° C | 53% | 1019.7 hPa | 0 mm | - | 0 W/m² | - |
* Rain latest hour (hover to see other rain measurements)
** Current wind speed in m/s (hover to see current wind gust speed)